Weather History for Kansas City International, MO

Change the Weather History Date:

Thursday, February 21, 2013

  Actual Average Record
Temperature  
Mean Temperature 22 °F 36 °F  
Max Temperature 24 °F 45 °F 75 °F (1935)
Min Temperature 20 °F 26 °F 0 °F (1939)
Degree Days  
Heating Degree Days 43 29  
Month to date heating degree days 643 686  
Since 1 July heating degree days 3470 3850  
Cooling Degree Days 0 0  
Month to date cooling degree days 0 0  
Year to date cooling degree days 0 0  
Moisture  
Dew Point 17 °F    
Average Humidity 77    
Maximum Humidity 91    
Minimum Humidity 62    
Precipitation  
Precipitation 0.59 in 0.06 in 0.78 in (1974)
Month to date precipitation 1.00 1.06  
Year to date precipitation 2.03 2.13  
Snow  
Snow 8.30 in 0.10 in 9.20 in (2013)
Month to date snowfall 8.5 4.3  
Since 1 July snowfall 13.2 15.1  
Snow Depth 8.00 in    
Sea Level Pressure  
Sea Level Pressure 29.91 in    
Wind  
Wind Speed 18 mph (ENE)    
Max Wind Speed 30 mph    
Max Gust Speed 38 mph    
Visibility 3 miles    
Events Fog , Snow    
T = Trace of Precipitation, MM = Missing Value Source: NWS Daily Summary

Daily Weather History Graph

Daily Weather History Graph

Search for Another Location

Airport:

Trip Planner

Search our weather history database for the weather conditions in past years. The results will help you decide how hot, cold, wet, or windy it might be!

Date:

Astronomy

Feb. 21, 2013 Rise Set
Actual Time 7:02 AM CST 6:02 PM CST
Civil Twilight 6:35 AM CST 6:30 PM CST
Nautical Twilight 6:04 AM CST 7:01 PM CST
Astronomical Twilight 5:33 AM CST 7:32 PM CST
Moon 2:19 PM CST (2/21) 4:06 AM CST (2/21)
Length of Visible Light 11h 54m
Length of Day
11h 00m
Waxing Gibbous, 84% of the Moon is Illuminated
Feb 21
Waxing Gibbous
Feb 25
Full
Mar 4
Last Quarter
Mar 11
New
Mar 19
First Quarter

Hourly Weather History & Observations

Time (CST) Temp. Windchill Dew Point Humidity Pressure Visibility Wind Dir Wind Speed Gust Speed Precip Events Conditions
12:53 AM 21.9 °F 11.0 °F 10.9 °F 63% 30.22 in 10.0 mi East 10.4 mph 20.7 mph N/A   Mostly Cloudy
1:53 AM 21.9 °F 8.7 °F 10.9 °F 63% 30.20 in 10.0 mi East 15.0 mph - N/A   Overcast
2:53 AM 21.0 °F 8.6 °F 10.0 °F 63% 30.16 in 10.0 mi East 12.7 mph - N/A   Overcast
3:53 AM 21.0 °F 6.6 °F 10.9 °F 65% 30.10 in 10.0 mi ENE 17.3 mph 24.2 mph N/A   Overcast
4:53 AM 21.0 °F 6.2 °F 10.9 °F 65% 30.11 in 10.0 mi East 18.4 mph 25.3 mph N/A   Overcast
5:53 AM 21.9 °F 7.8 °F 10.9 °F 63% 30.09 in 10.0 mi East 17.3 mph - N/A   Overcast
6:53 AM 21.9 °F 7.8 °F 10.9 °F 63% 30.06 in 9.0 mi East 17.3 mph 25.3 mph 0.00 in Snow Light Snow
7:27 AM 21.2 °F 7.8 °F 12.2 °F 68% 30.01 in 1.0 mi East 15.0 mph 24.2 mph 0.00 in Snow Light Snow
7:38 AM 21.2 °F 6.8 °F 14.0 °F 74% 30.04 in 0.5 mi East 17.3 mph - 0.00 in Snow Light Snow
7:50 AM 19.4 °F 6.0 °F 15.8 °F 86% 30.04 in 0.2 mi East 13.8 mph 21.9 mph 0.01 in Fog , Snow Snow
7:53 AM 19.4 °F 4.5 °F 15.8 °F 86% 30.04 in 0.2 mi ENE 17.3 mph 23.0 mph N/A Fog , Snow Snow
8:08 AM 19.4 °F 6.0 °F 17.6 °F 93% 30.05 in 0.2 mi East 13.8 mph - 0.03 in Fog , Snow Heavy Snow
8:22 AM 19.4 °F 5.0 °F 15.8 °F 86% 30.03 in 0.2 mi ENE 16.1 mph - 0.06 in Fog , Snow Heavy Snow
8:29 AM 19.4 °F 5.0 °F 17.6 °F 93% 30.02 in 0.2 mi ENE 16.1 mph - 0.08 in Fog , Snow Heavy Snow
8:40 AM 19.4 °F 5.0 °F 17.6 °F 93% 30.03 in 0.1 mi East 16.1 mph - 0.14 in Fog , Snow Heavy Snow
8:53 AM 19.9 °F 5.7 °F 17.1 °F 89% 30.07 in 0.1 mi East 16.1 mph - 0.20 in Fog , Snow Heavy Snow
9:53 AM 19.9 °F 3.5 °F 16.0 °F 85% 29.97 in 0.1 mi ENE 21.9 mph 28.8 mph 0.16 in Fog , Snow Heavy Snow
10:00 AM 19.4 °F 2.1 °F 15.8 °F 86% 29.92 in 0.2 mi ENE 24.2 mph 31.1 mph 0.02 in Fog , Snow Heavy Snow
10:11 AM 19.4 °F 1.8 °F 15.8 °F 86% 29.93 in 0.2 mi ENE 25.3 mph 33.4 mph 0.03 in Fog , Snow Heavy Snow
10:19 AM 19.4 °F 1.8 °F 17.6 °F 93% 29.92 in 0.2 mi ENE 25.3 mph 33.4 mph 0.05 in Fog , Snow Heavy Snow
10:30 AM 21.2 °F 4.9 °F 17.6 °F 86% 29.89 in 0.2 mi ENE 23.0 mph 32.2 mph 0.06 in Fog , Snow Heavy Snow
10:45 AM 21.2 °F 4.5 °F 17.6 °F 86% 29.89 in 0.2 mi ENE 24.2 mph 32.2 mph 0.07 in Fog , Snow Snow
10:53 AM 21.0 °F 5.0 °F 17.1 °F 85% 29.94 in 0.2 mi ENE 21.9 mph 31.1 mph 0.08 in Fog , Snow Snow
11:01 AM 21.2 °F 6.0 °F 17.6 °F 86% 29.89 in 0.5 mi East 19.6 mph 28.8 mph 0.00 in Fog , Snow Snow
11:04 AM 21.2 °F 6.4 °F 17.6 °F 86% 29.89 in 0.5 mi East 18.4 mph 27.6 mph 0.01 in Fog , Snow Snow
11:11 AM 21.2 °F 6.8 °F 17.6 °F 86% 29.89 in 0.5 mi East 17.3 mph 31.1 mph 0.01 in Fog , Snow Snow
11:38 AM 21.2 °F 4.9 °F 17.6 °F 86% 29.88 in 0.5 mi East 23.0 mph 29.9 mph 0.08 in Fog , Snow Light Snow
11:53 AM 21.9 °F 5.1 °F 18.0 °F 85% 29.92 in 0.5 mi East 25.3 mph 29.9 mph 0.09 in Fog , Snow Light Snow
12:08 PM 23.0 °F 6.3 °F 17.6 °F 80% 29.86 in 0.5 mi East 26.5 mph 35.7 mph 0.01 in Snow Snow
12:29 PM 23.0 °F 6.3 °F 17.6 °F 80% 29.85 in 1.0 mi East 26.5 mph 34.5 mph 0.02 in Snow Light Snow
12:53 PM 23.0 °F 6.9 °F 18.0 °F 81% 29.87 in 1.5 mi East 24.2 mph 38.0 mph 0.02 in Snow Light Snow
1:35 PM 23.0 °F 7.2 °F 17.6 °F 80% 29.81 in 0.8 mi East 23.0 mph - 0.00 in Snow Light Snow
1:49 PM 23.0 °F 9.2 °F 19.4 °F 86% 29.82 in 1.0 mi East 17.3 mph 28.8 mph 0.00 in Snow Light Snow
1:53 PM 23.0 °F 8.0 °F 19.0 °F 85% 29.85 in 1.0 mi East 20.7 mph 28.8 mph 0.00 in Snow Light Snow
2:02 PM 23.0 °F 7.2 °F 17.6 °F 80% 29.81 in 2.0 mi East 23.0 mph 33.4 mph 0.00 in Snow Light Snow
2:36 PM 24.8 °F 9.3 °F 19.4 °F 80% 29.79 in 2.0 mi East 24.2 mph 34.5 mph 0.00 in   Light Freezing Drizzle
2:53 PM 24.1 °F 10.6 °F 19.0 °F 81% 29.83 in 2.0 mi East 17.3 mph - 0.00 in   Light Freezing Drizzle
3:53 PM 24.1 °F 11.5 °F 19.9 °F 84% 29.81 in 2.0 mi East 15.0 mph 24.2 mph 0.00 in   Light Freezing Drizzle
4:44 PM 24.8 °F 12.4 °F 19.4 °F 80% 29.76 in 1.2 mi East 15.0 mph 25.3 mph 0.00 in Snow Light Snow
4:53 PM 24.1 °F 12.5 °F 21.0 °F 88% 29.81 in 0.8 mi East 12.7 mph - 0.01 in Snow Light Snow
5:53 PM 24.1 °F 13.7 °F 19.9 °F 84% 29.81 in 1.5 mi East 10.4 mph - 0.02 in Snow Light Snow
6:06 PM 24.8 °F 17.9 °F 21.2 °F 86% 29.78 in 2.0 mi ENE 5.8 mph - 0.00 in Snow Light Snow
6:30 PM 24.8 °F 16.1 °F 19.4 °F 80% 29.78 in 2.0 mi ENE 8.1 mph - 0.00 in   Light Freezing Drizzle
6:53 PM 23.0 °F 13.1 °F 19.9 °F 88% 29.81 in 2.0 mi ENE 9.2 mph - 0.00 in   Light Freezing Drizzle
7:18 PM 23.0 °F 11.7 °F 19.4 °F 86% 29.77 in 2.0 mi ENE 11.5 mph - 0.00 in Snow Light Snow
7:37 PM 23.0 °F 12.4 °F 19.4 °F 86% 29.77 in 2.0 mi ENE 10.4 mph - 0.01 in Snow Light Snow
7:48 PM 23.0 °F 13.1 °F 19.4 °F 86% 29.77 in 0.5 mi ENE 9.2 mph - 0.02 in Fog , Snow Snow
7:53 PM 23.0 °F 12.4 °F 19.9 °F 88% 29.81 in 0.5 mi ENE 10.4 mph - 0.03 in Fog , Snow Snow
7:57 PM 23.0 °F 13.1 °F 19.4 °F 86% 29.77 in 0.2 mi ENE 9.2 mph - 0.00 in Fog , Snow Heavy Snow
8:28 PM 23.0 °F 14.7 °F 19.4 °F 86% 29.77 in 2.0 mi ENE 6.9 mph - 0.04 in Snow Light Snow
8:51 PM 23.0 °F 13.9 °F 19.4 °F 86% 29.77 in 2.0 mi NE 8.1 mph - 0.04 in   Overcast
8:53 PM 23.0 °F 14.7 °F 19.9 °F 88% 29.81 in 2.0 mi NE 6.9 mph - 0.04 in   Overcast
9:28 PM 24.8 °F 16.9 °F 19.4 °F 80% 29.77 in 2.0 mi NE 6.9 mph - 0.00 in   Overcast
9:43 PM 24.8 °F 16.1 °F 19.4 °F 80% 29.77 in 10.0 mi NE 8.1 mph - 0.00 in   Overcast
9:53 PM 24.1 °F 15.2 °F 19.9 °F 84% 29.80 in 10.0 mi NE 8.1 mph - 0.00 in   Overcast
10:53 PM 24.1 °F 17.0 °F 21.0 °F 88% 29.80 in 4.0 mi NE 5.8 mph - 0.00 in Snow Light Snow
11:53 PM 24.1 °F - 21.0 °F 88% 29.80 in 10.0 mi Calm Calm - 0.00 in   Overcast